Change the Weather History Date:

Tuesday, March 5, 2013

  Actual Average (KSPI) Record (KSPI)
Temperature  
Mean Temperature 34 °F 38 °F  
Max Temperature 36 °F 47 °F 76 °F (1956)
Min Temperature 32 °F 29 °F -12 °F (1960)
Degree Days  
Heating Degree Days 31 27  
Month to date heating degree days 140  
Since 1 July heating degree days 4411  
Cooling Degree Days 0 0  
Month to date cooling degree days 0  
Year to date cooling degree days 0  
Moisture  
Dew Point 30 °F    
Average Humidity 84    
Maximum Humidity 96    
Minimum Humidity 68    
Precipitation  
Precipitation 0.01 in 0.09 in 1.40 in (1894)
Month to date precipitation 0.40  
Year to date precipitation 4.03  
Snow  
Snow 0.00 in 0.10 in 2.40 in (1966)
Month to date snowfall 0.6  
Since 1 July snowfall 18.7  
Snow Depth -    
Sea Level Pressure  
Sea Level Pressure 29.94 in    
Wind  
Wind Speed 13 mph (NW)    
Max Wind Speed 28 mph    
Max Gust Speed 43 mph    
Visibility 8 miles    
Events Rain , Snow    
T = Trace of Precipitation, MM = Missing Value Source: NWS Daily Summary

Daily Weather History Graph

Daily Weather History Graph

Search for Another Location

Airport or City:

Trip Planner

Search our weather history database for the weather conditions in past years. The results will help you decide how hot, cold, wet, or windy it might be!

Date:

Astronomy

Mar. 05, 2013 Rise Set
Actual Time 6:27 AM CST 5:57 PM CST
Civil Twilight 6:00 AM CST 6:24 PM CST
Nautical Twilight 5:29 AM CST 6:55 PM CST
Astronomical Twilight 4:58 AM CST 7:27 PM CST
Moon 1:39 AM CST (3/5) 11:37 AM CST (3/5)
Length of Visible Light 12h 23m
Length of Day
11h 29m
Last Quarter, 40% of the Moon is Illuminated
Mar 5
Last Quarter
Mar 11
New
Mar 19
First Quarter
Mar 27
Full
Apr 2
Last Quarter

Hourly Weather History & Observations

Time (CST) Temp. Windchill Dew Point Humidity Pressure Visibility Wind Dir Wind Speed Gust Speed Precip Events Conditions
12:35 AM 36.5 °F 31.0 °F 32.4 °F 85% 29.85 in 7.0 mi ENE 6.9 mph - 0.01 in Rain Rain
12:55 AM 36.5 °F 31.8 °F 32.9 °F 87% 29.85 in 10.0 mi NE 5.8 mph - 0.01 in Rain Light Rain
1:15 AM 36.1 °F 31.4 °F 32.9 °F 88% 29.85 in 10.0 mi NE 5.8 mph - N/A   Overcast
1:35 AM 36.1 °F 32.3 °F 32.5 °F 87% 29.86 in 10.0 mi NNE 4.6 mph - N/A   Overcast
1:55 AM 36.0 °F 33.3 °F 32.9 °F 89% 29.86 in 10.0 mi NNE 3.5 mph - N/A   Light Drizzle
2:15 AM 35.6 °F 31.7 °F 32.9 °F 90% 29.86 in 7.0 mi North 4.6 mph - N/A   Overcast
2:55 AM 35.6 °F 30.7 °F 33.8 °F 93% 29.84 in 7.0 mi North 5.8 mph - N/A   Overcast
3:15 AM 35.6 °F 30.7 °F 32.9 °F 90% 29.83 in 10.0 mi NNE 5.8 mph - N/A   Overcast
3:35 AM 35.6 °F 29.2 °F 32.9 °F 90% 29.82 in 7.0 mi NNE 8.1 mph - N/A   Overcast
3:55 AM 35.6 °F 32.8 °F 32.9 °F 90% 29.83 in 7.0 mi North 3.5 mph - N/A   Overcast
4:15 AM 35.6 °F 32.8 °F 32.9 °F 90% 29.84 in 7.0 mi North 3.5 mph - N/A   Overcast
4:35 AM 35.6 °F 31.7 °F 33.1 °F 91% 29.84 in 7.0 mi North 4.6 mph - N/A   Overcast
4:55 AM 35.4 °F 31.5 °F 33.1 °F 91% 29.85 in 7.0 mi NW 4.6 mph - N/A   Overcast
5:15 AM 35.1 °F 31.0 °F 33.1 °F 92% 29.85 in 5.0 mi NW 4.6 mph - N/A   Overcast
5:35 AM 34.9 °F 29.0 °F 33.1 °F 93% 29.86 in 5.0 mi WNW 6.9 mph - N/A   Overcast
5:55 AM 35.6 °F 28.6 °F 33.8 °F 93% 29.88 in 4.0 mi WNW 9.2 mph - N/A   Overcast
6:15 AM 34.7 °F 27.5 °F 33.3 °F 94% 29.88 in 4.0 mi WNW 9.2 mph - N/A   Overcast
6:35 AM 34.7 °F 27.5 °F 33.3 °F 94% 29.88 in 3.0 mi WNW 9.2 mph - N/A Rain Light Rain
6:55 AM 34.7 °F 26.9 °F 33.4 °F 95% 29.88 in 2.5 mi WNW 10.4 mph - N/A   Overcast
7:15 AM 34.7 °F 27.5 °F 33.3 °F 94% 29.88 in 2.0 mi WNW 9.2 mph - N/A   Light Drizzle
7:35 AM 34.7 °F 26.9 °F 33.4 °F 95% 29.88 in 1.2 mi WNW 10.4 mph - N/A Snow Light Snow
7:55 AM 34.3 °F 25.9 °F 33.3 °F 96% 29.88 in 1.2 mi WNW 11.5 mph - N/A Snow Light Snow
8:15 AM 34.3 °F 24.6 °F 33.3 °F 96% 29.88 in 1.2 mi WNW 15.0 mph 21.9 mph N/A Snow Light Snow
8:35 AM 34.3 °F 25.0 °F 33.1 °F 95% 29.88 in 3.0 mi WNW 13.8 mph 20.7 mph N/A Snow Light Snow
8:55 AM 34.3 °F 24.2 °F 32.5 °F 93% 29.88 in 3.0 mi WNW 16.1 mph 23.0 mph N/A   Overcast
9:15 AM 34.3 °F 24.2 °F 32.2 °F 92% 29.88 in 3.0 mi NW 16.1 mph 24.2 mph N/A Snow Light Snow
9:35 AM 33.8 °F 23.5 °F 32.0 °F 93% 29.89 in 4.0 mi WNW 16.1 mph 23.0 mph N/A Snow Light Snow
9:55 AM 34.3 °F 24.2 °F 32.0 °F 91% 29.90 in 2.0 mi WNW 16.1 mph 21.9 mph N/A Snow Light Snow
10:15 AM 34.2 °F 23.0 °F 32.0 °F 92% 29.90 in 1.2 mi WNW 19.6 mph 25.3 mph N/A Snow Light Snow
10:35 AM 34.0 °F 23.0 °F 32.0 °F 92% 29.90 in 3.0 mi WNW 18.4 mph - N/A Snow Light Snow
10:55 AM 34.0 °F 22.7 °F 31.5 °F 90% 29.90 in 3.0 mi WNW 19.6 mph 24.2 mph N/A Snow Light Snow
11:15 AM 33.8 °F 23.2 °F 31.1 °F 90% 29.91 in 1.8 mi WNW 17.3 mph 27.6 mph N/A Snow Light Snow
11:35 AM 33.8 °F 22.8 °F 31.5 °F 91% 29.91 in 1.2 mi WNW 18.4 mph 26.5 mph N/A Snow Light Snow
11:55 AM 34.0 °F 22.1 °F 30.9 °F 89% 29.91 in 7.0 mi WNW 21.9 mph 28.8 mph N/A   Overcast
12:15 PM 34.0 °F 22.4 °F 29.8 °F 85% 29.92 in 10.0 mi WNW 20.7 mph 32.2 mph N/A   Overcast
12:35 PM 35.1 °F 23.3 °F 30.0 °F 82% 29.92 in 10.0 mi WNW 23.0 mph 28.8 mph N/A   Overcast
12:55 PM 34.9 °F 23.9 °F 29.1 °F 79% 29.92 in 10.0 mi WNW 19.6 mph 28.8 mph N/A   Overcast
1:15 PM 34.9 °F 23.6 °F 28.4 °F 77% 29.92 in 10.0 mi WNW 20.7 mph 27.6 mph N/A   Overcast
1:35 PM 35.1 °F 23.0 °F 27.9 °F 75% 29.93 in 10.0 mi West 24.2 mph 32.2 mph N/A   Overcast
1:55 PM 34.0 °F 21.0 °F 27.1 °F 76% 29.93 in 10.0 mi WNW 26.5 mph 35.7 mph N/A   Overcast
2:15 PM 34.0 °F 22.1 °F 25.9 °F 72% 29.94 in 10.0 mi WNW 21.9 mph 31.1 mph N/A   Overcast
2:35 PM 33.8 °F 20.8 °F 26.2 °F 74% 29.94 in 10.0 mi WNW 26.5 mph 32.2 mph N/A   Overcast
2:55 PM 33.8 °F 20.5 °F 25.3 °F 71% 29.95 in 10.0 mi WNW 27.6 mph 34.5 mph N/A   Overcast
3:15 PM 33.8 °F 21.0 °F 24.6 °F 69% 29.95 in 10.0 mi WNW 25.3 mph 36.8 mph N/A   Overcast
3:35 PM 33.8 °F 21.0 °F 24.3 °F 68% 29.95 in 10.0 mi WNW 25.3 mph 34.5 mph N/A   Overcast
3:55 PM 34.0 °F 21.5 °F 24.8 °F 69% 29.96 in 10.0 mi WNW 24.2 mph 32.2 mph N/A   Overcast
4:15 PM 33.8 °F 21.6 °F 25.5 °F 72% 29.96 in 10.0 mi West 23.0 mph 32.2 mph N/A   Overcast
4:35 PM 34.0 °F 21.0 °F 26.2 °F 73% 29.96 in 10.0 mi WNW 26.5 mph 31.1 mph N/A   Overcast
4:55 PM 33.8 °F 20.5 °F 25.9 °F 73% 29.97 in 10.0 mi West 27.6 mph 34.5 mph N/A   Overcast
5:15 PM 33.4 °F 21.1 °F 25.5 °F 73% 29.97 in 10.0 mi WNW 23.0 mph 27.6 mph N/A   Overcast
5:35 PM 33.8 °F 21.3 °F 25.7 °F 72% 29.97 in 10.0 mi West 24.2 mph 29.9 mph N/A   Overcast
5:55 PM 33.6 °F 21.3 °F 25.9 °F 73% 29.98 in 10.0 mi WNW 23.0 mph 32.2 mph N/A   Overcast
6:15 PM 33.3 °F 22.5 °F 26.4 °F 76% 29.99 in 10.0 mi WNW 17.3 mph 26.5 mph N/A   Overcast
6:35 PM 33.3 °F 20.1 °F 26.8 °F 77% 30.00 in 10.0 mi WNW 26.5 mph 29.9 mph N/A   Overcast
6:55 PM 33.3 °F 20.3 °F 26.6 °F 77% 30.01 in 10.0 mi WNW 25.3 mph 35.7 mph N/A   Overcast
7:15 PM 33.3 °F 20.9 °F 26.8 °F 77% 30.02 in 10.0 mi WNW 23.0 mph 42.6 mph N/A   Overcast
7:35 PM 33.1 °F 21.2 °F 27.1 °F 79% 30.02 in 10.0 mi WNW 20.7 mph 32.2 mph N/A   Overcast
7:55 PM 33.1 °F 20.9 °F 27.3 °F 79% 30.02 in 10.0 mi WNW 21.9 mph 31.1 mph N/A   Overcast
8:15 PM 33.3 °F 21.2 °F 27.3 °F 79% 30.03 in 10.0 mi WNW 21.9 mph 28.8 mph N/A Snow Light Snow
8:35 PM 33.3 °F 21.5 °F 27.1 °F 78% 30.04 in 10.0 mi WNW 20.7 mph 32.2 mph N/A   Overcast
8:55 PM 33.1 °F 21.2 °F 27.3 °F 79% 30.04 in 10.0 mi WNW 20.7 mph 28.8 mph N/A   Overcast
9:15 PM 33.3 °F 21.5 °F 26.8 °F 77% 30.05 in 10.0 mi WNW 20.7 mph 26.5 mph N/A   Overcast
9:35 PM 33.4 °F 22.7 °F 26.4 °F 75% 30.06 in 10.0 mi NW 17.3 mph 26.5 mph N/A   Overcast
9:55 PM 33.1 °F 21.2 °F 26.6 °F 77% 30.08 in 10.0 mi NW 20.7 mph 27.6 mph N/A   Overcast
10:15 PM 32.9 °F 21.6 °F 26.6 °F 78% 30.08 in 10.0 mi NW 18.4 mph 26.5 mph N/A   Overcast
10:35 PM 32.9 °F 20.7 °F 26.4 °F 77% 30.09 in 10.0 mi NW 21.9 mph 28.8 mph N/A   Overcast
10:55 PM 32.9 °F 21.0 °F 26.6 °F 78% 30.09 in 10.0 mi NW 20.7 mph 26.5 mph N/A   Overcast
11:15 PM 32.5 °F 20.8 °F 26.6 °F 79% 30.09 in 10.0 mi NW 19.6 mph 24.2 mph N/A   Overcast
11:35 PM 32.4 °F 20.9 °F 27.0 °F 80% 30.10 in 10.0 mi NW 18.4 mph 25.3 mph N/A   Overcast
11:55 PM 32.4 °F 21.3 °F 26.8 °F 80% 30.12 in 10.0 mi NW 17.3 mph 26.5 mph N/A   Overcast